Date,TemperatureHighF,TemperatureAvgF,TemperatureLowF,DewpointHighF,DewpointAvgF,DewpointLowF,HumidityHigh,HumidityAvg,HumidityLow,PressureMaxIn,PressureMinIn,WindSpeedMaxMPH,WindSpeedAvgMPH,GustSpeedMaxMPH,PrecipitationSumIn
2013-1-1,29.8,12.3,-0.9,10.6,2.0,-7.5,78,65,40,29.12,28.91,0,0,0,0.00
2013-1-2,46.9,19.5,11.7,25.6,11.2,4.7,80,70,40,29.03,28.85,0,0,0,0.04
2013-1-3,32.7,23.6,11.3,23.4,12.3,1.8,84,63,41,29.23,29.03,0,0,0,0.04
2013-1-4,37.9,19.2,11.1,14.3,9.7,5.3,84,69,37,29.14,28.97,0,0,0,0.00
2013-1-5,39.0,25.2,8.4,19.4,13.0,2.5,89,61,39,29.03,28.82,0,0,0,0.00
2013-1-6,43.5,24.6,8.4,19.6,12.5,2.4,81,62,35,29.12,28.88,0,0,0,0.04
2013-1-7,45.9,29.4,14.0,23.4,17.6,7.2,75,62,40,28.91,28.76,0,0,0,0.00
2013-1-8,43.0,27.5,9.9,25.2,16.9,3.8,87,66,44,28.91,28.64,0,0,0,0.00
2013-1-9,55.8,33.2,19.8,29.2,20.1,14.4,91,61,32,29.26,28.91,0,0,0,0.00
2013-1-10,39.9,30.3,20.1,34.8,25.3,15.2,98,82,52,29.15,28.52,0,0,0,0.08
2013-1-11,55.4,35.3,23.7,49.0,32.0,9.7,98,88,52,28.61,28.23,0,0,0,0.00
2013-1-12,35.8,19.2,8.8,33.4,3.3,-4.8,91,50,34,29.00,28.29,0,0,0,0.00
2013-1-13,30.0,13.2,4.6,4.9,-4.1,-11.4,56,46,33,29.14,28.94,0,0,0,0.00
2013-1-14,34.3,15.9,3.4,9.3,-1.6,-13.2,66,46,32,29.26,29.11,0,0,0,0.00
2013-1-15,38.8,21.9,7.7,16.6,8.3,-2.9,76,57,39,29.15,28.85,0,0,0,0.00
2013-1-16,58.5,34.1,20.3,30.1,20.8,10.9,78,60,30,29.06,28.73,0,0,0,0.00
2013-1-17,48.4,33.0,26.8,32.8,26.9,22.3,98,80,44,29.29,29.06,0,0,0,0.00
2013-1-18,51.1,36.8,29.1,30.9,25.4,23.0,97,65,38,29.09,28.73,0,0,0,0.00
2013-1-19,60.6,44.2,29.7,28.9,23.4,13.4,73,46,29,29.09,28.73,0,0,0,0.00
2013-1-20,29.7,17.0,11.8,13.8,2.6,-0.1,75,53,42,29.26,29.09,0,0,0,0.00
2013-1-21,17.6,12.7,7.7,7.4,-2.5,-9.1,73,51,36,29.26,29.12,0,0,0,0.00
2013-1-22,28.9,16.4,10.8,7.6,-0.6,-9.1,64,47,38,29.17,29.03,0,0,0,0.00
2013-1-23,33.6,18.3,9.1,15.6,5.0,-1.9,75,56,42,29.29,28.94,0,0,0,0.00
2013-1-24,18.7,11.1,1.8,1.8,-4.6,-9.6,58,49,37,29.35,28.97,0,0,0,0.00
2013-1-25,57.6,23.4,9.9,24.4,5.7,-5.9,78,48,26,29.09,28.91,0,0,0,0.00
2013-1-26,55.9,34.0,16.9,25.7,17.5,10.9,83,55,26,29.09,28.82,0,0,0,0.00
2013-1-27,41.7,37.8,34.9,41.2,37.2,20.6,98,98,50,28.85,28.52,0,0,0,0.04
2013-1-28,40.1,36.5,34.2,39.6,36.0,33.7,98,98,98,28.70,28.44,0,0,0,0.00
2013-1-29,37.8,33.6,32.2,37.2,32.0,29.0,98,94,79,28.55,28.44,0,0,0,0.00
2013-1-30,33.1,22.2,9.7,27.0,11.8,-0.7,94,65,41,28.76,28.55,0,0,0,0.00
2013-1-31,23.2,10.0,-0.9,8.3,-6.9,-21.5,74,47,33,29.23,28.76,0,0,0,0.00
2013-2-1,32.7,10.6,-1.7,18.3,-8.1,-22.1,68,42,36,29.23,28.85,0,0,0,0.00
2013-2-2,42.8,33.4,22.6,31.6,23.1,16.1,83,66,43,29.03,28.85,0,0,0,0.05
2013-2-3,47.8,33.2,20.1,27.5,19.9,13.8,81,60,32,29.06,28.61,0,0,0,0.00
2013-2-4,38.7,28.3,23.2,26.6,20.4,16.1,87,73,59,28.88,28.58,0,0,0,0.05
2013-2-5,56.8,39.4,26.2,29.0,23.4,15.4,89,57,27,28.91,28.64,0,0,0,0.00
2013-2-6,57.0,41.9,27.0,39.2,29.0,19.8,84,61,42,28.91,28.64,0,0,0,0.00
2013-2-7,37.9,33.2,29.5,30.6,27.0,22.5,83,78,71,29.09,28.70,0,0,0,0.05
2013-2-8,36.3,29.2,26.1,29.2,23.8,20.1,96,81,59,29.17,28.85,0,0,0,0.05
2013-2-9,54.7,41.3,28.2,34.6,30.1,26.2,94,67,41,28.85,28.50,0,0,0,0.00
2013-2-10,44.2,37.5,30.7,42.6,30.9,18.6,98,78,58,28.67,28.11,0,0,0,0.09
2013-2-11,44.2,31.3,21.4,23.7,17.1,13.5,80,57,38,29.00,28.67,0,0,0,0.00
2013-2-12,53.2,28.9,19.2,22.2,16.1,8.4,83,64,26,28.97,28.73,0,0,0,0.00
2013-2-13,57.7,38.7,24.1,27.3,21.4,14.5,80,54,26,28.76,28.55,0,0,0,0.00
2013-2-14,50.7,36.7,17.8,27.8,23.7,7.2,87,61,28,29.12,28.58,0,0,0,0.00
2013-2-15,39.4,18.0,11.3,21.5,9.1,4.3,79,69,36,29.20,29.09,0,0,0,0.00
2013-2-16,40.6,32.6,24.1,22.0,18.8,13.1,72,57,43,29.00,28.82,0,0,0,0.00
2013-2-17,59.5,38.2,20.1,32.3,23.8,15.1,82,59,34,28.85,28.41,0,0,0,0.00
2013-2-18,37.8,30.9,20.3,30.6,17.9,8.3,88,59,40,28.91,24.57,0,0,0,0.00
2013-2-19,34.5,19.6,9.3,11.1,0.3,-7.1,65,44,27,29.17,28.91,0,0,0,0.00
2013-2-20,23.2,13.0,4.8,13.9,-3.0,-11.4,77,49,41,29.20,29.00,0,0,0,0.00
2013-2-21,25.3,21.6,19.9,18.5,13.1,4.0,90,72,44,29.06,28.67,0,0,0,0.00
2013-2-22,42.6,20.9,2.7,17.1,10.5,-10.0,85,68,31,28.88,28.67,0,0,0,0.00
2013-2-23,46.4,25.6,-3.5,20.7,9.5,-15.6,78,52,34,28.85,28.64,0,0,0,0.08
2013-2-24,48.7,27.5,16.7,26.0,18.7,11.3,84,72,38,28.91,28.67,0,0,0,0.00
2013-2-25,41.5,30.0,25.9,25.2,21.8,18.5,91,73,45,28.91,28.76,0,0,0,0.00
2013-2-26,34.9,26.9,23.2,25.0,23.2,20.8,98,86,58,28.79,28.64,0,0,0,0.00
2013-2-27,48.4,33.6,24.3,24.4,21.2,16.5,87,63,36,28.97,28.76,0,0,0,0.00
2013-2-28,34.3,28.6,25.2,23.8,20.7,14.2,78,72,57,29.09,28.91,0,0,0,0.00
2013-3-1,34.9,26.0,14.7,17.0,14.0,6.9,72,61,42,29.17,29.06,0,0,0,0.00
2013-3-2,44.8,27.2,9.5,21.0,13.1,2.9,79,58,32,29.17,28.91,0,0,0,0.00
2013-3-3,45.5,34.6,25.5,27.8,24.2,20.0,85,67,47,28.91,28.58,0,0,0,0.00
2013-3-4,42.3,34.2,25.0,30.4,25.3,12.8,91,71,46,28.91,28.50,0,0,0,0.00
2013-3-5,38.8,28.9,24.1,16.9,13.9,11.1,60,53,39,29.14,28.88,0,0,0,0.00
2013-3-6,44.6,25.5,20.1,20.4,14.2,12.6,76,64,32,29.26,29.03,0,0,0,0.00
2013-3-7,56.7,38.6,22.8,25.4,20.9,17.3,82,53,28,29.09,28.88,0,0,0,0.00
2013-3-8,57.7,45.0,22.6,40.0,29.8,17.9,94,58,37,29.00,28.73,0,0,0,0.16
2013-3-9,61.9,45.1,33.3,50.4,41.2,32.0,98,88,53,28.76,28.41,0,0,0,0.46
2013-3-10,33.3,29.1,21.2,32.0,26.2,17.4,98,89,68,28.82,28.58,0,0,0,0.04
2013-3-11,49.1,28.5,15.6,20.9,13.3,7.3,91,57,28,28.85,28.70,0,0,0,0.21
2013-3-12,49.6,31.1,17.4,23.1,16.7,9.0,90,58,33,29.17,28.85,0,0,0,1.03
2013-3-13,46.2,27.1,8.4,21.6,13.5,1.9,81,59,34,29.26,29.03,0,0,286,0.00
2013-3-14,70.5,47.5,28.2,38.0,28.8,17.2,82,52,27,29.03,28.88,0,0,286,0.00
2013-3-15,66.7,42.3,30.9,42.2,32.6,26.7,94,72,35,28.91,28.58,0,0,0,1.03
2013-3-16,41.2,31.6,25.7,37.8,23.3,18.6,92,72,54,29.00,28.70,0,0,0,0.00
2013-3-17,49.1,36.2,25.0,31.6,22.4,16.3,82,59,37,28.97,28.55,0,0,0,1.03
2013-3-18,46.4,35.2,23.5,35.6,18.0,5.2,98,54,28,28.88,28.55,0,0,0,0.08
2013-3-19,59.5,35.4,19.8,25.0,15.0,10.1,73,47,23,29.03,28.88,0,0,0,1.11
2013-3-20,47.1,28.0,15.6,14.8,7.4,0.6,68,44,24,29.23,28.94,0,0,0,0.00
2013-3-21,35.6,28.3,21.9,17.3,12.1,8.2,76,51,40,28.94,28.73,0,0,0,1.11
2013-3-22,34.3,31.0,26.8,22.9,18.3,10.8,85,60,44,28.88,28.79,0,0,0,1.11
2013-3-23,37.9,31.5,28.9,28.5,21.7,17.0,94,68,47,28.94,28.85,0,0,0,0.00
2013-3-24,38.5,29.1,24.3,25.7,15.4,11.4,85,58,39,28.94,28.88,0,0,0,0.05
2013-3-25,34.0,26.3,22.6,22.1,17.8,14.0,84,70,46,29.17,28.94,0,0,0,0.00
2013-3-26,50.7,35.4,10.9,20.9,15.2,4.0,78,46,27,29.20,29.03,0,0,0,0.04
2013-3-27,57.4,34.7,21.4,25.9,19.2,13.2,80,57,28,29.09,28.97,0,0,0,0.00
2013-3-28,66.7,45.9,21.4,32.8,23.5,15.4,81,46,23,29.09,28.94,0,0,0,0.00
2013-3-29,73.2,44.5,25.2,36.7,24.5,18.6,78,52,19,29.03,28.85,0,0,0,0.00
2013-3-30,72.5,54.1,46.8,53.9,39.0,28.2,98,60,30,28.91,28.76,0,0,0,0.37
2013-3-31,63.9,45.5,37.9,39.0,35.4,24.3,84,70,23,32.13,24.57,0,0,0,1.57
2013-4-1,48.7,33.9,22.1,30.5,15.3,7.1,92,50,25,29.17,29.00,0,0,0,0.00
2013-4-2,62.4,27.6,17.2,25.0,13.4,9.6,75,59,24,29.14,29.03,0,0,0,1.61
2013-4-3,62.2,38.2,23.9,25.0,18.0,13.1,70,46,24,29.17,29.00,0,0,0,0.00
2013-4-4,70.9,48.2,30.0,32.6,25.8,16.9,80,46,24,29.06,28.88,0,0,0,0.00
2013-4-5,71.2,40.6,27.0,33.4,24.1,18.0,81,55,22,29.00,28.55,0,0,0,0.00
2013-4-6,79.0,60.5,41.0,41.8,34.9,26.8,68,42,21,28.64,28.44,0,0,0,0.00
2013-4-7,75.4,54.1,36.1,49.7,36.7,29.0,90,57,24,28.70,28.47,0,0,0,0.09
2013-4-8,73.4,57.8,46.9,58.8,52.5,46.2,98,84,46,28.58,28.47,0,0,0,0.00
2013-4-9,62.4,48.6,32.7,59.5,46.8,31.6,98,94,82,28.85,28.41,0,0,0,0.49
2013-4-10,36.7,33.2,31.1,35.1,32.2,30.4,98,96,85,28.85,28.64,0,0,0,0.04
2013-4-11,41.0,32.3,28.4,30.9,27.8,25.2,97,84,59,28.67,28.52,0,0,0,0.16
2013-4-12,52.7,37.1,28.9,27.7,23.8,21.2,81,60,37,28.85,28.55,0,0,0,0.00
2013-4-13,60.1,41.9,24.4,34.6,27.1,18.9,87,59,35,28.88,28.52,0,0,0,0.00
2013-4-14,68.9,57.1,40.8,49.5,38.8,25.0,93,53,34,28.55,28.17,0,0,0,0.25
2013-4-15,54.5,39.2,32.7,27.6,23.5,17.0,72,54,34,28.94,28.52,0,0,0,0.00
2013-4-16,56.5,41.5,34.9,29.2,26.2,21.6,71,56,31,29.09,28.91,0,0,0,0.00
2013-4-17,48.7,41.7,36.0,40.8,34.0,24.3,98,77,38,29.00,28.61,0,0,0,0.42
2013-4-18,41.2,35.6,31.5,33.6,28.0,22.7,98,75,56,28.79,28.61,0,0,0,0.50
2013-4-19,55.9,33.4,27.7,24.2,19.0,13.6,74,58,27,28.94,28.70,0,0,0,3.98
2013-4-20,49.5,33.6,21.2,25.2,18.8,15.1,79,57,29,29.09,28.91,0,0,0,3.98
2013-4-21,71.8,58.9,37.9,45.2,33.8,23.5,85,42,24,28.97,28.76,0,0,0,0.12
2013-4-22,51.8,41.6,32.4,51.1,39.8,26.0,98,93,78,29.09,28.79,0,0,0,0.91
2013-4-23,44.2,33.7,25.5,26.6,19.8,14.0,79,58,39,29.12,29.00,0,0,0,0.00
2013-4-24,65.1,42.2,23.4,35.9,22.9,16.6,79,52,20,29.03,28.88,0,0,0,5.01
2013-4-25,73.2,41.5,27.7,32.0,25.5,21.9,84,60,19,29.09,28.82,0,0,0,0.00
2013-4-26,81.5,56.3,47.1,44.1,34.4,31.3,82,45,21,29.03,28.85,0,0,0,0.00
2013-4-27,80.8,52.9,40.6,50.2,41.6,36.1,98,73,23,29.03,28.79,0,0,0,0.00
2013-4-28,87.1,57.2,44.8,49.9,42.9,37.5,94,66,19,28.79,28.50,0,0,0,0.00
2013-4-29,89.1,72.2,54.0,52.4,43.8,36.3,71,40,18,28.64,28.35,0,0,0,0.00
2013-4-30,77.7,68.6,57.6,51.8,40.4,27.1,50,36,25,28.76,28.32,0,0,0,0.00
2013-5-1,57.6,44.2,32.7,40.5,36.5,30.5,98,77,36,29.26,28.73,0,0,0,0.67
2013-5-2,55.4,42.0,32.7,33.3,26.8,19.3,98,58,34,29.38,29.20,0,0,0,0.49
2013-5-3,57.0,36.4,28.4,28.1,23.5,19.8,81,62,28,29.23,28.88,0,0,0,0.00
2013-5-4,43.5,39.7,36.9,40.0,33.9,25.2,94,80,53,29.00,28.82,0,0,0,0.00
2013-5-5,57.0,46.2,41.0,44.9,40.1,37.7,89,80,62,29.03,28.94,0,0,0,0.00
2013-5-6,79.3,62.1,41.0,44.5,41.0,35.2,91,53,22,29.03,28.85,0,0,0,0.00
2013-5-7,78.4,65.0,39.4,57.6,46.8,36.0,97,57,30,28.91,28.76,0,0,0,0.50
2013-5-8,70.5,62.6,55.0,58.2,55.1,51.7,98,78,55,28.85,28.73,0,0,0,0.00
2013-5-9,70.9,58.9,54.1,58.3,54.3,52.1,98,86,57,28.88,28.70,0,0,0,0.00
2013-5-10,81.5,60.0,47.3,52.3,46.1,36.4,95,66,24,29.00,28.82,0,0,0,0.00
2013-5-11,68.2,50.4,35.8,44.7,31.1,14.1,83,52,15,29.12,28.88,0,0,0,0.00
2013-5-12,77.5,47.8,30.7,32.8,24.5,15.4,73,47,13,29.12,28.88,0,0,0,0.00
2013-5-13,88.7,60.5,42.8,48.8,36.9,26.1,72,47,16,28.94,28.64,0,0,0,0.00
2013-5-14,104.7,81.3,56.1,58.0,41.4,31.0,82,30,9,28.67,28.47,0,0,0,0.00
2013-5-15,90.5,69.8,59.4,41.9,36.1,28.2,47,31,12,28.79,28.61,0,0,0,0.00
2013-5-16,90.0,77.8,55.0,57.4,49.9,39.7,70,39,25,28.73,28.58,0,0,0,0.00
2013-5-17,94.1,81.1,59.5,59.2,52.1,45.0,84,41,20,28.73,28.64,0,0,0,0.00
2013-5-18,88.5,74.6,59.0,65.0,58.7,51.6,93,60,36,28.73,28.52,0,0,0,0.29
2013-5-19,82.6,66.3,57.6,67.8,59.2,51.7,97,79,46,28.61,28.35,0,0,0,0.37
2013-5-20,80.6,63.9,55.4,57.3,52.0,41.8,97,71,30,28.50,28.38,0,0,0,0.00
2013-5-21,66.7,59.5,53.8,51.0,44.8,39.2,78,59,40,32.13,28.44,0,0,0,7.33
2013-5-22,67.3,56.9,50.5,49.9,46.4,42.9,86,69,47,28.85,28.55,0,0,0,0.00
2013-5-23,80.4,60.1,50.7,48.7,43.6,31.7,86,62,21,29.06,28.70,0,0,0,0.05
2013-5-24,77.5,61.0,47.5,48.1,43.2,38.8,80,55,31,29.12,28.82,0,0,0,0.00
2013-5-25,85.5,72.0,57.9,65.3,58.7,44.1,98,65,40,28.94,28.79,0,0,0,0.37
2013-5-26,87.8,75.4,66.2,67.4,64.5,61.2,91,70,45,28.82,28.64,0,0,0,0.00
2013-5-27,87.6,70.9,59.7,65.5,61.0,54.3,98,74,37,28.76,28.52,0,0,0,1.66
2013-5-28,88.3,74.4,60.6,63.0,58.6,53.0,96,62,32,28.58,28.50,8,2,8,0.00
2013-5-29,80.6,68.2,62.2,69.3,63.3,59.8,98,85,63,28.55,28.35,19,3,19,1.00
2013-5-30,84.6,68.5,60.6,61.7,55.4,43.0,98,67,32,28.47,28.35,14,4,14,0.08
2013-5-31,86.4,71.4,54.7,50.1,42.3,34.7,79,40,18,28.55,28.44,14,3,14,0.04
2013-6-1,72.5,58.7,53.8,52.1,45.0,39.7,77,61,40,28.91,28.52,13,3,13,0.00
2013-6-2,81.9,63.3,45.5,46.4,39.1,29.0,79,46,20,29.00,28.70,8,2,8,10.62
2013-6-3,80.2,62.1,44.6,50.2,42.6,38.4,87,54,24,28.94,28.61,17,3,17,0.00
2013-6-4,77.7,67.2,59.0,60.2,55.9,49.0,90,68,49,28.88,28.64,10,1,10,0.04
2013-6-5,86.0,67.1,55.4,57.9,46.3,38.2,89,52,22,28.91,28.79,9,1,9,0.00
2013-6-6,83.5,68.6,52.9,54.1,44.9,39.3,81,46,24,28.88,28.79,10,1,10,0.00
2013-6-7,89.8,67.1,46.6,52.8,42.3,34.9,89,46,19,28.88,28.70,7,1,7,10.53
2013-6-8,73.2,62.7,56.8,65.1,54.8,43.8,98,76,54,28.73,28.50,10,1,10,0.87
2013-6-9,76.1,62.6,58.5,61.3,55.3,50.3,98,78,45,28.70,28.55,13,3,13,0.00
2013-6-10,90.0,70.3,52.2,59.8,53.8,49.4,95,62,28,28.76,28.61,10,1,10,0.00
2013-6-11,95.5,73.9,64.8,68.6,62.2,52.8,91,71,25,28.67,28.52,12,1,12,0.00
2013-6-12,95.2,76.1,61.0,66.5,60.4,46.6,87,61,27,28.91,28.47,12,1,12,0.00
2013-6-13,87.8,70.8,56.1,60.4,49.5,40.0,84,52,21,28.97,28.82,6,1,6,0.04
2013-6-14,95.5,77.8,60.1,69.2,61.4,54.8,88,61,36,28.94,28.58,18,3,18,0.21
2013-6-15,90.5,77.9,64.0,66.9,60.5,50.8,91,58,29,28.79,28.67,12,2,12,0.00
2013-6-16,96.3,70.9,62.2,68.4,58.8,46.5,94,73,20,28.88,28.76,6,1,6,0.00
2013-6-17,99.1,71.2,60.8,60.0,53.0,41.9,79,58,17,28.88,28.76,6,0,6,0.00
2013-6-18,94.5,70.2,59.7,59.4,51.5,41.9,78,56,19,28.94,28.79,7,1,7,0.00
2013-6-19,93.4,76.2,59.4,64.6,55.3,50.2,89,53,26,28.85,28.70,15,2,15,0.00
2013-6-20,94.5,83.4,66.4,68.3,61.9,55.6,80,51,34,28.82,28.64,17,5,17,0.00
2013-6-21,100.4,84.2,76.3,68.5,65.0,50.6,69,55,19,28.70,28.58,19,6,19,0.00
2013-6-22,94.1,79.3,67.1,65.8,60.4,48.1,93,54,28,28.85,28.58,16,4,16,0.17
2013-6-23,89.6,76.1,64.4,65.9,61.4,55.6,93,63,38,28.79,28.55,16,2,16,0.16
2013-6-24,89.6,76.2,66.7,72.2,67.2,62.2,94,76,45,28.76,28.52,17,2,17,0.21
2013-6-25,92.8,79.8,68.7,71.9,66.2,56.4,94,66,35,28.64,28.50,18,2,18,0.13
2013-6-26,102.4,78.4,69.3,72.1,65.7,47.2,94,73,17,28.73,28.52,8,1,8,0.00
2013-6-27,92.8,74.2,64.9,71.8,62.3,57.0,90,70,32,28.88,28.55,9,1,9,0.16
2013-6-28,95.4,78.8,64.8,67.8,54.5,42.9,91,51,18,28.88,28.76,12,2,12,0.00
2013-6-29,89.4,73.6,62.2,55.5,50.5,45.0,70,47,24,28.82,28.76,11,2,11,12.44
2013-6-30,88.0,70.5,56.8,57.5,48.9,40.6,84,52,21,28.97,28.79,10,1,10,0.00
2013-7-1,93.4,62.9,51.1,53.8,46.3,38.1,84,62,17,29.03,28.94,8,1,8,0.00
2013-7-2,93.0,65.0,54.3,65.9,51.6,42.4,87,66,21,29.03,28.88,8,1,8,0.29
2013-7-3,95.2,76.4,56.5,63.8,52.1,42.2,94,52,18,28.94,28.76,8,1,8,0.00
2013-7-4,91.6,77.0,57.4,54.1,49.9,40.6,75,42,19,28.85,28.70,18,4,18,0.00
2013-7-5,91.2,73.5,67.3,57.1,51.8,48.2,63,48,29,28.76,28.64,19,3,19,0.00
2013-7-6,93.7,77.9,69.3,60.5,54.1,50.0,60,44,29,28.70,28.61,15,4,15,0.00
2013-7-7,101.7,84.5,72.0,68.8,59.6,52.8,71,45,25,28.76,28.64,15,3,15,0.00
2013-7-8,96.3,79.1,72.1,72.5,68.0,58.7,90,72,32,28.79,28.70,10,1,10,0.04
2013-7-9,106.2,81.0,71.4,69.9,64.6,59.2,86,62,23,28.79,28.67,6,1,6,0.00
2013-7-10,93.0,73.9,65.8,66.8,61.0,52.0,87,68,28,28.94,28.76,10,1,10,0.00
2013-7-11,93.6,76.4,59.4,64.6,55.0,49.4,92,54,24,28.94,28.76,14,2,14,0.00
2013-7-12,98.1,85.9,67.8,65.2,59.8,53.7,64,43,29,28.85,28.70,14,4,14,0.00
2013-7-13,98.4,83.8,72.1,67.9,63.1,58.2,70,52,28,28.79,28.70,16,4,16,0.00
2013-7-14,95.0,75.5,65.1,64.1,59.7,44.9,78,61,20,28.97,28.76,11,2,11,12.77
2013-7-15,97.2,77.9,57.9,62.6,57.3,53.0,88,54,24,29.03,28.91,10,1,10,0.00
2013-7-16,96.3,80.5,65.8,66.8,58.0,51.7,87,52,24,29.09,29.00,12,2,12,0.00
2013-7-17,98.4,75.0,64.9,68.0,60.9,54.3,89,67,26,29.14,28.97,58,1,58,0.00
2013-7-18,98.4,84.0,68.0,67.8,60.3,54.7,85,49,26,29.00,28.73,17,3,17,0.00
2013-7-19,104.5,85.3,70.9,64.9,57.0,46.1,65,41,15,28.88,28.70,9,2,9,12.77
2013-7-20,98.6,76.9,60.6,62.3,54.6,42.6,86,51,19,28.85,28.67,10,1,10,0.00
2013-7-21,100.9,81.3,66.9,66.9,60.0,54.7,82,53,25,28.76,28.58,9,1,9,0.00
2013-7-22,106.2,80.8,64.9,70.9,62.6,47.8,90,61,16,28.67,28.58,15,2,15,0.33
2013-7-23,90.9,74.0,64.4,65.2,59.1,53.5,91,64,30,28.88,28.61,9,1,9,0.21
2013-7-24,94.3,69.5,57.6,61.8,56.9,51.5,92,69,25,28.94,28.82,0,0,0,0.00
2013-7-25,87.4,76.6,66.0,64.3,58.9,52.2,85,56,32,28.91,28.82,0,0,0,0.00
2013-7-26,86.5,72.2,56.7,66.1,53.2,42.7,95,57,25,29.00,28.82,0,0,630,0.00
2013-7-27,84.6,66.1,51.6,53.4,44.0,36.8,85,52,21,29.00,28.82,0,0,630,0.00
2013-7-28,88.0,72.3,45.7,51.2,43.4,39.0,88,40,20,28.94,28.82,0,0,0,0.00
2013-7-29,66.4,61.2,59.0,63.5,53.8,47.3,95,77,63,28.88,28.82,0,0,0,0.25
2013-7-30,83.3,69.9,64.6,68.1,64.1,59.1,98,84,46,28.97,28.85,0,0,0,0.04
2013-7-31,95.0,76.4,61.3,67.8,60.8,55.5,96,65,29,29.00,28.88,0,0,0,13.60
2013-8-1,95.2,69.5,59.9,70.3,61.9,53.3,98,79,28,28.97,28.67,0,0,0,0.79
2013-8-2,90.9,74.9,64.4,67.9,63.0,57.6,94,70,36,28.88,28.61,0,0,0,0.00
2013-8-3,83.5,67.4,61.0,60.2,56.9,50.1,88,72,33,29.03,28.73,0,0,0,0.00
2013-8-4,84.0,72.2,57.7,64.0,56.6,51.5,92,61,39,29.03,28.85,0,0,0,0.00
2013-8-5,95.0,77.3,68.0,72.1,67.7,63.4,96,75,38,28.88,28.67,0,0,0,0.00
2013-8-6,95.4,80.7,66.4,70.3,66.6,60.4,97,66,38,28.79,28.64,0,0,0,14.43
2013-8-7,92.7,72.4,64.4,64.5,60.9,51.7,88,72,27,28.85,28.67,0,0,0,0.00
2013-8-8,81.3,67.0,62.6,63.6,60.6,56.6,91,81,46,28.88,28.73,0,0,0,0.00
2013-8-9,89.4,75.4,60.1,68.6,59.8,49.2,94,64,27,29.00,28.85,0,0,0,0.00
2013-8-10,90.3,74.7,54.5,62.1,54.9,51.0,92,56,29,29.06,28.88,0,0,0,0.00
2013-8-11,94.8,75.9,62.6,66.3,59.5,54.1,84,61,28,28.97,28.82,0,0,0,0.00
2013-8-12,94.6,71.8,64.8,66.7,62.5,51.1,91,77,27,28.91,28.82,0,0,0,0.00
2013-8-13,86.7,70.6,58.8,60.5,54.1,46.9,91,61,29,29.03,28.85,0,0,0,0.00
2013-8-14,77.7,65.2,52.3,60.4,54.8,49.2,90,71,44,29.03,28.88,0,0,0,0.00
2013-8-15,70.3,64.1,61.9,61.8,59.0,56.4,95,84,67,28.97,28.85,0,0,0,14.76
2013-8-16,77.0,66.6,60.4,60.5,56.3,49.9,94,73,42,29.00,28.88,0,0,573,14.76
2013-8-17,85.3,70.3,59.5,61.2,52.9,44.4,91,59,29,29.03,28.94,0,0,0,0.00
2013-8-18,88.0,60.7,50.9,60.4,50.4,47.6,92,73,29,29.00,28.88,0,0,0,0.00
2013-8-19,91.9,76.3,63.7,65.1,59.5,55.6,83,60,31,28.91,28.76,0,0,0,0.00
2013-8-20,95.7,75.9,69.8,65.1,63.2,56.9,81,68,29,28.79,28.70,0,0,0,0.00
2013-8-21,98.2,76.3,69.8,66.0,62.5,57.0,80,65,29,28.85,28.76,0,0,0,0.00
2013-8-22,92.8,73.5,68.0,66.6,63.2,57.2,88,72,33,28.97,28.79,0,0,0,0.00
2013-8-23,95.2,79.2,67.6,70.4,63.4,55.2,91,64,28,28.91,28.79,0,0,0,0.00
2013-8-24,97.7,83.9,74.3,66.8,62.9,57.9,69,52,28,28.91,28.79,0,0,0,0.00
2013-8-25,102.0,85.6,73.9,65.9,62.4,56.4,75,49,25,28.94,28.82,0,0,0,0.00
2013-8-26,101.3,86.4,74.5,65.4,61.2,56.9,71,46,25,28.91,28.76,0,0,0,0.00
2013-8-27,103.8,85.6,75.4,61.7,57.7,47.7,56,42,17,28.79,28.70,0,0,0,0.00
2013-8-28,103.6,83.5,68.4,61.5,56.0,47.7,69,43,17,28.85,28.73,0,0,0,0.00
2013-8-29,105.4,73.5,63.1,69.5,60.6,50.8,88,69,18,28.85,28.70,0,0,0,0.00
2013-8-30,105.4,83.3,66.2,68.6,64.2,58.2,89,59,22,28.73,28.64,0,0,0,0.00
2013-8-31,102.7,82.7,70.3,71.2,64.4,56.8,91,61,23,28.76,28.61,0,0,0,0.00
2013-9-1,95.9,77.7,61.0,68.2,56.8,43.0,87,57,17,28.85,28.58,0,0,0,14.76
2013-9-2,91.9,69.7,54.5,59.5,48.4,37.5,90,55,18,28.97,28.82,0,0,0,0.00
2013-9-3,94.3,60.1,49.8,58.1,47.6,44.9,85,69,21,28.91,28.82,0,0,0,0.00
2013-9-4,93.7,73.7,60.6,59.4,53.8,40.5,82,55,19,29.00,28.85,0,0,0,0.00
2013-9-5,93.6,75.8,64.9,63.8,56.1,47.8,89,55,23,29.03,28.88,0,0,0,0.04
2013-9-6,100.0,79.3,61.0,62.0,56.2,51.2,84,50,21,28.91,28.70,0,0,0,0.00
2013-9-7,96.3,78.4,69.8,68.4,61.8,52.8,86,59,27,28.76,28.67,0,0,0,0.05
2013-9-8,100.0,79.4,66.0,71.4,64.2,57.8,95,67,26,28.79,28.58,0,0,0,0.00
2013-9-9,104.2,84.4,69.4,65.1,51.2,38.7,85,38,12,28.76,28.58,0,0,0,0.00
2013-9-10,104.7,81.9,66.4,67.5,52.7,46.4,87,41,15,28.88,28.61,0,0,0,0.08
2013-9-11,91.4,74.6,67.6,74.7,64.9,53.9,98,76,30,28.97,28.85,0,0,0,0.46
2013-9-12,87.8,70.1,55.4,65.9,56.5,36.4,92,70,19,29.06,28.94,0,0,0,0.00
2013-9-13,83.7,62.1,46.8,54.9,44.5,36.8,90,61,21,29.06,28.88,0,0,0,0.00
2013-9-14,78.6,64.3,49.5,51.6,46.0,42.0,87,56,30,28.94,28.67,0,0,0,0.00
2013-9-15,69.6,65.9,57.2,65.7,56.7,48.0,93,73,50,29.09,28.64,0,0,0,0.24
2013-9-16,74.1,61.9,55.0,53.8,49.1,43.6,86,64,35,29.15,29.00,0,0,0,0.05
2013-9-17,74.8,64.5,57.7,65.2,60.1,53.9,98,87,66,29.09,28.67,0,0,0,0.20
2013-9-18,93.9,78.3,67.1,66.4,61.7,55.1,93,62,30,28.70,28.52,0,0,0,0.00
2013-9-19,79.0,70.0,56.8,62.6,53.4,41.2,84,57,35,28.88,28.52,0,0,0,0.08
2013-9-20,80.1,61.8,46.8,48.1,40.5,27.8,84,53,21,28.94,28.76,0,0,0,0.00
2013-9-21,84.7,60.9,40.3,52.8,41.2,36.4,90,56,21,28.88,28.64,0,0,0,0.00
2013-9-22,85.8,68.9,57.4,50.4,43.9,34.8,76,46,19,28.82,28.58,0,0,0,0.00
2013-9-23,82.6,66.2,51.6,47.9,43.3,37.5,81,48,21,28.64,28.52,0,0,0,0.00
2013-9-24,74.5,63.0,52.7,53.9,48.8,44.4,83,61,41,28.76,28.52,0,0,0,15.96
2013-9-25,84.4,63.4,47.5,59.0,48.9,44.1,93,65,29,28.76,28.55,0,0,0,0.00
2013-9-26,93.0,72.4,60.8,57.4,52.4,43.2,86,57,19,28.73,28.52,0,0,0,0.00
2013-9-27,91.8,76.9,66.7,56.6,49.6,46.0,69,40,22,28.64,28.52,0,0,0,0.00
2013-9-28,75.4,65.5,45.1,55.3,44.8,29.4,87,50,22,28.88,28.52,0,0,0,0.34
2013-9-29,83.1,61.5,41.7,40.7,35.7,29.9,81,45,16,28.88,28.67,0,0,0,0.00
2013-9-30,86.7,66.9,51.8,46.1,40.5,36.3,69,42,19,28.88,28.52,0,0,0,0.00
2013-10-1,89.2,65.3,52.9,51.1,42.5,26.0,79,49,13,28.82,28.58,0,0,0,0.00
2013-10-2,90.0,68.8,50.0,60.1,49.3,41.5,81,54,25,28.79,28.64,0,0,0,0.00
2013-10-3,87.1,64.1,59.7,65.7,58.5,51.2,98,85,32,28.73,28.52,0,0,0,1.41
2013-10-4,85.8,65.4,48.9,66.5,56.9,30.1,97,77,31,28.73,28.44,0,0,0,0.54
2013-10-5,57.7,46.1,40.6,35.5,28.0,24.9,80,50,32,28.79,28.64,0,0,0,0.00
2013-10-6,60.3,45.6,41.7,42.4,35.5,26.7,87,69,36,28.88,28.64,0,0,0,0.00
2013-10-7,81.7,50.6,40.1,39.0,32.1,27.4,77,54,17,28.91,28.79,0,0,0,0.00
2013-10-8,80.8,64.2,50.9,37.1,34.3,31.8,52,35,20,28.88,28.64,0,0,0,0.00
2013-10-9,83.3,64.5,46.8,45.3,40.7,36.4,81,46,21,28.82,28.70,0,0,0,0.00
2013-10-10,83.8,62.1,52.9,50.2,45.3,41.9,79,57,28,28.82,28.58,0,0,0,0.00
2013-10-11,81.9,67.7,50.5,53.9,45.2,33.2,72,50,19,28.73,28.44,0,0,0,0.00
2013-10-12,75.6,53.7,37.6,34.8,28.6,18.5,69,43,16,29.09,28.73,0,0,0,0.00
2013-10-13,75.2,51.9,32.9,36.3,27.7,23.2,78,46,18,29.23,29.06,0,0,0,0.00
2013-10-14,59.2,50.5,45.5,58.6,42.3,27.3,98,76,35,29.09,28.55,0,0,0,1.69
2013-10-15,53.2,47.9,43.5,45.5,34.7,29.4,77,60,45,28.94,28.64,0,0,0,0.00
2013-10-16,67.3,50.0,39.9,37.2,30.3,21.1,76,51,22,28.94,28.73,0,0,0,0.00
2013-10-17,64.8,42.7,32.2,35.3,30.0,25.7,84,63,30,28.91,28.70,0,0,0,0.00
2013-10-18,55.9,42.1,33.3,30.5,25.1,17.4,80,54,28,28.97,28.85,0,0,0,0.00
2013-10-19,70.0,46.8,31.6,31.1,26.9,23.0,78,52,23,28.85,28.64,0,0,0,0.00
2013-10-20,71.1,51.4,38.1,35.8,31.5,26.6,78,50,23,28.88,28.52,0,0,0,0.00
2013-10-21,61.2,42.2,28.4,37.2,27.6,23.0,85,59,29,28.94,28.61,0,0,0,0.00
2013-10-22,58.1,45.4,30.9,40.3,33.2,23.8,77,64,37,28.97,28.70,0,0,745,0.00
2013-10-23,57.9,41.7,28.2,37.4,30.7,22.6,88,67,40,29.03,28.85,0,0,0,0.00
2013-10-24,59.0,38.9,26.2,31.2,21.8,13.2,82,55,24,29.23,29.03,0,0,0,0.00
2013-10-25,63.7,42.8,23.0,27.4,21.4,14.9,78,47,24,29.23,28.88,0,0,0,0.00
2013-10-26,59.5,44.0,26.4,28.4,22.6,13.6,64,45,25,29.20,28.85,0,0,0,0.00
2013-10-27,75.9,37.3,24.1,32.3,20.5,14.9,73,56,18,29.00,28.64,0,0,0,0.00
2013-10-28,54.7,46.9,37.6,37.8,30.9,26.7,78,55,37,29.03,28.76,0,0,0,0.00
2013-10-29,50.2,45.8,41.9,49.1,42.7,37.3,96,89,77,29.00,28.76,0,0,0,0.04
2013-10-30,57.7,46.4,38.8,52.3,44.1,34.5,98,92,73,28.85,28.61,0,0,0,0.08
2013-10-31,64.0,44.8,32.7,45.6,33.3,27.5,97,69,33,28.64,28.35,0,0,0,0.00
2013-11-1,66.4,47.2,36.1,37.4,32.6,26.3,80,59,25,28.85,28.47,0,0,0,0.00
2013-11-2,66.6,45.8,33.3,32.9,26.8,19.0,79,52,23,29.03,28.67,0,0,0,0.00
2013-11-3,60.1,49.8,36.5,31.0,26.3,22.0,59,41,28,28.91,28.52,0,0,0,0.04
2013-11-4,63.1,47.1,28.9,37.9,28.4,20.7,74,51,27,29.00,28.58,0,0,0,0.00
2013-11-5,41.9,36.7,28.6,39.8,33.0,21.4,98,87,63,29.00,28.67,0,0,0,0.91
2013-11-6,47.1,35.7,26.2,32.0,27.6,20.6,93,74,44,29.12,28.73,0,0,0,0.00
2013-11-7,57.9,37.4,25.0,29.4,21.3,11.5,88,58,22,29.23,29.06,0,0,0,0.00
2013-11-8,64.8,46.5,25.5,30.9,25.3,16.9,75,46,24,29.09,28.55,0,0,0,0.00
2013-11-9,67.8,48.3,34.0,30.2,25.9,22.0,74,45,23,29.20,28.76,0,0,0,0.00
2013-11-10,57.0,42.1,26.1,33.8,23.7,19.0,78,51,26,29.23,28.94,0,0,0,0.00
2013-11-11,46.6,32.1,17.4,41.0,16.2,4.2,87,53,39,29.59,28.91,0,0,0,0.00
2013-11-12,39.4,19.1,7.9,9.2,2.1,-2.4,69,50,23,29.71,29.35,0,0,0,0.00
2013-11-13,59.0,40.6,23.5,24.0,17.4,3.8,47,39,26,29.35,28.79,0,0,0,0.00
2013-11-14,63.3,41.6,29.7,33.1,22.0,16.0,73,46,29,28.79,28.70,0,0,0,0.00
2013-11-15,59.4,42.5,23.2,38.7,26.7,17.6,84,57,29,28.76,28.44,0,0,0,0.00
2013-11-16,67.1,48.3,32.2,51.8,33.1,19.7,98,62,24,28.44,28.17,0,0,0,0.00
2013-11-17,61.5,46.5,32.2,39.3,29.1,21.6,76,52,35,28.91,28.20,0,0,0,0.00
2013-11-18,64.2,42.3,26.4,27.3,18.0,11.0,74,43,16,29.09,28.47,0,0,0,0.00
2013-11-19,64.4,51.5,31.1,27.5,21.0,13.9,52,31,22,29.00,28.67,0,0,0,0.00
2013-11-20,62.6,48.5,32.7,29.5,24.8,15.8,70,41,27,28.79,28.55,0,0,0,0.00
2013-11-21,35.8,28.1,19.8,31.9,17.0,8.5,88,63,47,29.38,28.76,0,0,0,0.00
2013-11-22,38.7,22.1,11.1,10.4,3.8,-1.1,65,46,29,29.50,29.14,0,0,0,0.00
2013-11-23,30.2,18.8,7.2,9.7,3.9,-14.2,66,53,28,29.68,29.41,0,0,0,0.00
2013-11-24,37.4,16.1,7.2,9.2,-6.5,-14.2,55,36,30,29.56,29.00,0,0,0,0.00
2013-11-25,52.0,29.9,23.4,25.7,12.5,1.2,60,49,31,29.03,28.91,0,0,0,0.00
2013-11-26,35.4,25.5,11.7,19.4,6.9,-3.4,75,47,30,29.26,28.94,0,0,0,0.04
2013-11-27,36.3,21.0,6.3,11.3,1.7,-8.4,65,44,31,29.23,28.82,0,0,0,0.00
2013-11-28,39.7,26.0,11.7,16.4,9.2,-1.4,67,50,31,29.29,28.88,0,0,0,0.00
2013-11-29,49.5,27.4,9.9,20.5,9.8,-3.1,75,48,31,29.29,28.94,0,0,0,0.00
2013-11-30,66.4,36.5,19.0,29.1,17.7,9.9,77,51,20,29.26,28.88,0,0,0,0.00
2013-12-1,53.8,29.5,17.1,25.9,14.8,10.2,76,56,29,29.00,28.67,0,0,0,0.00
2013-12-2,68.7,40.8,23.4,31.0,21.3,11.3,78,51,22,28.67,28.35,0,0,0,0.00
2013-12-3,46.4,35.6,29.5,29.2,26.7,18.6,80,70,46,28.55,28.35,0,0,0,0.00
2013-12-4,32.9,21.5,14.9,27.7,11.9,-0.3,88,67,48,28.91,28.52,0,0,0,0.00
2013-12-5,20.1,11.5,5.5,-0.5,-7.9,-14.1,49,41,34,29.26,28.91,0,0,0,0.00
2013-12-6,17.8,6.9,-3.5,-6.0,-15.3,-24.8,35,34,34,29.50,29.23,0,0,0,0.00
2013-12-7,14.2,4.0,-5.4,-6.0,-16.8,-26.6,40,36,34,29.53,29.17,0,0,0,0.00
2013-12-8,24.8,13.8,1.4,6.0,-2.2,-10.0,69,49,39,29.17,28.82,0,0,0,0.00
2013-12-9,24.4,8.0,-5.1,3.0,-8.9,-17.5,64,47,32,29.14,28.85,0,0,0,0.00
2013-12-10,38.1,28.3,12.7,23.1,8.3,-1.3,79,43,32,29.09,28.85,0,0,0,21.27
2013-12-11,45.1,13.5,-2.7,19.9,-4.2,-17.7,70,46,23,29.47,29.06,0,0,0,0.00
2013-12-12,43.2,21.7,8.4,15.0,4.4,-13.4,74,48,31,29.41,28.88,0,0,0,0.00
2013-12-13,42.3,21.1,5.7,19.7,9.6,-1.9,76,62,38,28.91,28.70,0,0,0,0.00
2013-12-14,28.9,18.9,7.0,14.2,7.2,-5.4,74,61,43,29.03,28.88,0,0,802,19.32
2013-12-15,33.8,20.1,10.9,15.8,10.0,-1.3,79,65,43,28.97,28.76,0,0,0,0.00
2013-12-16,55.9,27.7,8.1,28.0,14.9,0.9,80,61,31,29.00,28.76,0,0,0,0.00
2013-12-17,47.5,32.2,22.3,25.6,15.9,4.7,84,55,27,29.12,28.91,0,0,0,0.00
2013-12-18,61.2,38.7,24.6,25.4,18.2,13.1,66,45,25,28.91,28.52,0,0,0,0.00
2013-12-19,37.9,27.2,14.7,23.8,16.5,8.7,80,65,42,28.79,28.58,0,0,0,0.00
2013-12-20,19.6,15.6,10.9,8.7,5.8,4.3,77,65,55,28.85,28.61,0,0,0,0.00
2013-12-21,27.1,19.5,14.4,15.6,8.8,5.4,78,63,43,28.79,28.61,0,0,0,0.00
2013-12-22,27.9,17.3,7.0,15.5,2.1,-9.9,80,52,35,29.20,28.70,0,0,0,0.00
2013-12-23,19.8,7.6,-1.3,-3.9,-12.3,-22.9,45,39,31,29.41,29.14,0,0,0,0.00
2013-12-24,26.2,15.8,5.0,21.3,2.6,-17.2,87,58,34,29.32,28.88,0,0,0,0.00
2013-12-25,49.5,28.0,14.2,26.5,13.9,4.9,92,59,30,29.12,29.00,0,0,0,0.00
2013-12-26,55.4,31.9,18.7,21.0,12.2,4.7,72,46,23,29.09,28.88,0,0,0,0.00
2013-12-27,64.8,43.3,15.1,24.6,15.4,4.8,82,37,15,29.12,28.88,0,0,0,0.00
2013-12-28,63.9,39.4,14.9,23.8,16.2,-1.7,64,42,16,29.00,28.55,0,0,0,0.00
2013-12-29,18.9,8.8,-0.6,-1.4,-14.0,-28.7,48,36,23,29.23,29.00,0,0,0,0.00
2013-12-30,41.5,19.8,-0.6,18.3,-3.1,-28.7,61,37,24,29.09,28.82,0,0,0,0.00
2013-12-31,39.2,17.4,4.1,14.3,1.7,-6.7,63,51,34,29.09,28.79,0,0,0,0.00
2014-1-1,12.9,8.8,1.8,-1.4,-5.2,-11.8,52,52,52,29.20,28.94,0,0,0,0.00
2014-1-2,22.5,3.4,-7.6,-0.3,-13.9,-25.5,52,44,35,29.26,29.14,0,0,0,0.00